Location: Newark
(45.2862°N, 9.8850°E)
Time: 06:11:36
(UTC+00:00)

N. Korean satellite - Pass Details

Date: 11 December 2019
Orbit: 454 x 508 km, 97.2° (Epoch: 20 January)

Event Time Altitude Azimuth Distance (km) Brightness Sun altitude
Rises 06:08:18 0° 358° (N) 2,550 9.9 -7.1°
Reaches altitude 10° 06:10:43 10° 343° (NNW) 1,654 8.9 -6.7°
Maximum altitude 06:13:26 21° 293° (WNW) 1,114 7.8 -6.3°
Drops below altitude 10° 06:16:06 10° 242° (WSW) 1,622 8.9 -5.9°
Sets 06:18:27 0° 226° (SW) 2,483 10.0 -5.5°
